Home   Weather   Chattanooga   Past weeks

Flag for USA Past Weather in Chattanooga, Tennessee, USA — Yesterday and Last 2 Weeks

Now
63 °F

Scattered clouds.


Feels Like: 63 °F
Forecast: 48 / 68 °F
Wind: 9 mph from Northeast

Location: Lovell Field

Current Time: Feb 19, 2017 at 2:00:06 pm

Latest Report: Feb 19, 2017 at 12:53 pm


Visibility: 10 mi

Pressure: 30.11 "Hg

Humidity: 60%

Dew Point: 49 °F

Location of ChattanoogaLocation

Past Weather in Chattanooga — Graph

°F

Chattanooga Temperature Yesterday

Maximum temperature yesterday: 53 °F (at 4:53 pm)
Minimum temperature yesterday: 46 °F (at 12:53 am)
Average temperature yesterday: 50 °F

High & Low Weather Summary for the Past Weeks

 TemperatureHumidityPressure
High74 °F (Feb 12, 12:32 pm)100% (Feb 7, 5:12 am)30.45 "Hg (Feb 7, 5:12 am)
Low28 °F (Feb 10, 4:53 am)15% (Feb 13, 2:53 pm)29.68 "Hg (Feb 8, 9:12 pm)
Average50 °F69%30.04 "Hg
* Reported Feb 4 12:53 pm — Feb 19 12:53 pm, Chattanooga, Weather by CustomWeather, © 2017

Note: Actual official high and low records may vary slightly from our data, if they occured in-between our weather recording intervals... More about our weather records

Advertising

Chattanooga Weather History for the Previous 24 Hours

Scroll right to see more
 ConditionsComfort  
Time TempWeatherWind HumidityBarometerVisibility
12:53 pm
Sun, Feb 19
63 °FScattered clouds.9 mph60%30.11 "Hg10 mi
11:53 am61 °FBroken clouds.9 mph70%30.14 "Hg10 mi
11:14 am60 °FScattered clouds.7 mph75%30.14 "Hg10 mi
10:53 am58 °FPartly sunny.5 mph81%30.14 "Hg10 mi
10:44 am57 °FPartly sunny.5 mph83%30.14 "Hg7 mi
10:34 am56 °FFog.3 mph87%30.14 "Hg3 mi
9:53 am54 °FFog.No wind90%30.13 "Hg1 mi
8:53 am52 °FDrizzle. Fog.No wind93%30.10 "Hg1 mi
8:23 am52 °FDrizzle. Fog.No wind93%30.09 "Hg1 mi
7:53 am51 °FDrizzle. Fog.3 mph92%30.06 "Hg1 mi
7:41 am51 °FDrizzle. Fog.No wind92%30.06 "Hg1 mi
6:53 am51 °FDrizzle. Fog.No wind96%30.04 "Hg2 mi
5:53 am51 °FLight rain. Fog.No wind96%30.03 "Hg2 mi
5:37 am51 °FLight rain. Fog.No wind92%30.03 "Hg1 mi
5:21 am51 °FFog.3 mph92%30.03 "Hg2 mi
4:53 am51 °FFog.No wind92%30.01 "Hg3 mi
4:13 am50 °FFog.No wind96%30.01 "Hg2 mi
3:53 am50 °FFog.No wind96%30.00 "Hg3 mi
3:24 am50 °FFog.No wind96%30.01 "Hg3 mi
2:53 am50 °FFog.No wind93%30.00 "Hg2 mi
2:33 am50 °FFog.No wind93%30.00 "Hg3 mi
2:21 am50 °FFog.No wind93%30.00 "Hg4 mi
1:53 am50 °FFog.No wind93%29.99 "Hg3 mi
1:41 am50 °FFog.No wind93%29.99 "Hg2 mi
1:27 am50 °FFog.No wind93%30.00 "Hg3 mi
1:11 am50 °FFog.No wind93%30.00 "Hg2 mi
12:53 am50 °FFog.No wind96%29.99 "Hg3 mi
12:41 am51 °FFog.No wind92%30.00 "Hg4 mi
12:12 am50 °FFog.No wind93%30.00 "Hg3 mi
12:01 am50 °FFog.No wind93%29.99 "Hg4 mi
10:53 pm
Sat, Feb 18
51 °FFog.No wind89%29.98 "Hg5 mi
9:53 pm52 °FOvercast.No wind89%29.98 "Hg7 mi
8:53 pm52 °FOvercast.No wind89%29.98 "Hg7 mi
7:53 pm53 °FOvercast.6 mph86%29.96 "Hg9 mi
6:53 pm53 °FOvercast.5 mph83%29.95 "Hg9 mi
5:53 pm53 °FOvercast.6 mph83%29.93 "Hg9 mi
4:53 pm53 °FOvercast.8 mph83%29.92 "Hg9 mi
3:53 pm52 °FLow clouds.5 mph86%29.92 "Hg9 mi
2:53 pm52 °FMore clouds than sun.6 mph86%29.93 "Hg9 mi
2:00 pm51 °FMore clouds than sun.No wind86%29.95 "Hg9 mi
Weather by CustomWeather, © 2017

See weather overviewHow to use our weather pages